TimeCST,TemperatureF,Dew PointF,Humidity,Sea Level PressureIn,VisibilityMPH,Wind Direction,Wind SpeedMPH,Gust SpeedMPH,PrecipitationIn,Events,Conditions,WindDirDegrees,DateUTC
12:53 AM,45.0,26.1,48,30.22,10.0,NW,10.4,23.0,N/A,,Clear,320,2014-01-15 06:53:00
1:53 AM,41.0,21.9,47,30.23,10.0,NW,6.9,-,N/A,,Clear,310,2014-01-15 07:53:00
2:53 AM,39.0,19.9,46,30.26,10.0,WNW,6.9,-,N/A,,Clear,300,2014-01-15 08:53:00
3:53 AM,36.0,19.0,50,30.25,10.0,West,4.6,-,N/A,,Clear,280,2014-01-15 09:53:00
4:53 AM,28.9,21.9,75,30.25,10.0,West,4.6,-,N/A,,Clear,270,2014-01-15 10:53:00
5:53 AM,33.1,18.0,54,30.25,10.0,West,6.9,-,N/A,,Clear,280,2014-01-15 11:53:00
6:53 AM,33.1,18.0,54,30.25,10.0,WNW,6.9,-,N/A,,Clear,290,2014-01-15 12:53:00
7:53 AM,35.1,18.0,50,30.29,10.0,WNW,6.9,-,N/A,,Clear,290,2014-01-15 13:53:00
8:53 AM,39.0,18.0,43,30.31,10.0,NW,11.5,-,N/A,,Clear,320,2014-01-15 14:53:00
9:53 AM,43.0,16.0,34,30.33,10.0,NNW,10.4,-,N/A,,Clear,330,2014-01-15 15:53:00
10:53 AM,45.0,16.0,31,30.30,10.0,NNW,10.4,-,N/A,,Clear,340,2014-01-15 16:53:00
11:53 AM,46.0,15.1,29,30.28,10.0,WNW,13.8,29.9,0.00,Rain,Light Rain,300,2014-01-15 17:53:00
12:53 PM,46.9,16.0,29,30.24,10.0,NW,12.7,20.7,0.00,,Clear,310,2014-01-15 18:53:00
1:53 PM,46.9,14.0,27,30.23,10.0,WNW,10.4,24.2,N/A,,Clear,300,2014-01-15 19:53:00
2:53 PM,46.9,12.9,25,30.22,10.0,NW,13.8,21.9,N/A,,Clear,310,2014-01-15 20:53:00
3:53 PM,46.0,14.0,28,30.21,8.0,WNW,11.5,-,N/A,,Partly Cloudy,300,2014-01-15 21:53:00
4:53 PM,45.0,15.1,30,30.22,10.0,WNW,6.9,-,N/A,,Clear,300,2014-01-15 22:53:00
5:53 PM,37.0,21.9,54,30.21,10.0,SW,3.5,-,N/A,,Clear,220,2014-01-15 23:53:00
6:53 PM,33.1,21.9,64,30.22,10.0,Calm,Calm,-,N/A,,Clear,0,2014-01-16 00:53:00
7:53 PM,30.0,24.1,79,30.21,10.0,NNW,3.5,-,N/A,,Clear,340,2014-01-16 01:53:00
8:53 PM,30.9,23.0,72,30.21,10.0,Calm,Calm,-,N/A,,Clear,0,2014-01-16 02:53:00
9:53 PM,28.9,23.0,78,30.19,10.0,Calm,Calm,-,N/A,,Clear,0,2014-01-16 03:53:00
10:53 PM,28.0,23.0,81,30.17,10.0,Calm,Calm,-,N/A,,Clear,0,2014-01-16 04:53:00
11:53 PM,27.0,23.0,85,30.14,10.0,Calm,Calm,-,N/A,,Clear,0,2014-01-16 05:53:00